Regional Weather Roundup
Issued by NWS Upton, NY

Current Version | Previous Version | Graphics & Text | Print | Product List | Glossary Off
Versions: 1 2 3 4 5 6 7 8 9 10 11 12 13 14 15 16 17 18 19 20 21 22 23 24 25 26 27 28 29 30 31 32 33 34 35 36 37 38 39 40 41 42 43 44 45 46 47 48 49 50

000
ASUS41 KOKX 260905
RWROKX

REGIONAL WEATHER ROUNDUP
NATIONAL WEATHER SERVICE NEW YORK NY
500 AM EDT SAT JUL 26 2014

NOTE: "FAIR" INDICATES FEW OR NO CLOUDS BELOW 12,000 FEET WITH NO
SIGNIFICANT WEATHER AND/OR OBSTRUCTIONS TO VISIBILITY.

NYZ071-072-176-178-NJZ106-104-261000-
NEW YORK CITY METRO AREA


CITY           SKY/WX    TMP DP  RH WIND       PRES   REMARKS
CENTRAL PARK   CLOUDY    70  58  65 VRB3      30.02R
LAGUARDIA APRT CLOUDY    71  60  68 SW7       29.99R
KENNEDY INTL   CLOUDY    70  62  76 W7        30.00S
NEWARK/LIBERTY CLOUDY    67  60  78 SW7       29.99S
BRNX BOT. GARD   N/A     70  59  68 SW9       29.99S
TETERBORO      CLOUDY    70  61  73 S5        29.98S
$$

NYZ177-179-078>081-261000-
LONG ISLAND NEW YORK

CITY           SKY/WX    TMP DP  RH WIND       PRES   REMARKS
FARMINGDALE    MOCLDY    68  61  78 SW5       30.00S
ISLIP          PTCLDY    70  63  78 SW7       29.98S
SHIRLEY        MOCLDY    70  66  87 S6        30.00S
WESTHAMPTON    MOCLDY    69  66  90 SW7       30.01S
MONTAUK POINT    N/A     69  67  93 VRB5      30.01R
$$

NYZ052-065-067-261000-
HUDSON VALLEY

CITY           SKY/WX    TMP DP  RH WIND       PRES   REMARKS
WHITE PLAINS   CLOUDY    66  61  84 W3        29.99R
NEWBURGH       MOCLDY   N/A N/A N/A W6        30.00S
MONTGOMERY     MOCLDY    58  56  93 CALM      29.99R
POUGHKEEPSIE   MOCLDY    61  58  90 CALM      29.97S
ALBANY         MOCLDY    62  59  90 CALM      29.95F
$$

NJZ001-105-106-008-010-013-015-019>022-104-261000-
NEW JERSEY

CITY           SKY/WX    TMP DP  RH WIND       PRES   REMARKS
NEWARK/LIBERTY CLOUDY    67  60  78 SW7       29.99S
TETERBORO      CLOUDY    70  61  73 S5        29.98S
CALDWELL       CLOUDY    65  60  84 CALM      30.00S
MORRISTOWN     MOCLDY    63  59  88 CALM      30.00R
SOMERVILLE     NOT AVBL
LINDEN         FAIR      68  61  78 W3        30.02R
SUSSEX         MOCLDY    58  55  90 CALM      30.00S
ANDOVER          N/A     59  58  96 CALM      30.01S
TRENTON        MOCLDY    63  59  87 CALM      30.00S
MILLVILLE      CLOUDY    61  59  93 CALM      30.01S
ATLANTIC CITY  CLOUDY    66  61  84 SW5       30.01R
WRIGHTSTOWN    CLOUDY    63  62  97 CALM      30.00R
TOMS RIVER     CLOUDY    61  57  88 CALM      30.02R
BELMAR         CLOUDY    66  61  82 SW3       30.01R
$$

PAZ047>061-062-071-261000-
EASTERN PENNSYLVANIA

CITY           SKY/WX    TMP DP  RH WIND       PRES   REMARKS
PHILADELPHIA   CLOUDY    69  60  73 S5        30.01S
ALLENTOWN      CLOUDY    60  57  89 N3        30.00S
SCRANTON       MOCLDY    58  50  75 E3        30.00S
$$

CTZ002-004>006-009-010-012-RIZ004-006-007-MAZ004-011-015-261000-
SOUTHERN NEW ENGLAND
 IN CT

CITY           SKY/WX    TMP DP  RH WIND       PRES   REMARKS
BRADLEY INTL   MOCLDY    63  59  87 S5        29.97S
HARTFORD       MOCLDY    64  60  87 S6        29.98R
DANBURY        CLOUDY    60  57  89 CALM      30.00F
WTRBRY/OXFORD  MOCLDY    61  55  82 CALM      30.01S
BRIDGEPORT     MOCLDY    70  65  84 SW3       29.99R
MERIDEN        MOCLDY    61  58  90 CALM      29.99S
NEW HAVEN      MOCLDY    73  66  78 SW5       29.98F
CHESTER        FAIR      66  64  94 SW3       30.00F
GROTON         PTCLDY    67  66  97 W6        29.98S
WILLIMANTIC    MOCLDY    58  55  90 CALM      30.00S

 IN RI

CITY           SKY/WX    TMP DP  RH WIND       PRES   REMARKS
PROVIDENCE     PTCLDY    64  60  87 W6        29.99S
BLOCK ISLAND   PTCLDY    66  63  88 SW8       30.00S
WESTERLY       PTCLDY    62  59  90 CALM      30.00S

 IN MA

CITY           SKY/WX    TMP DP  RH WIND       PRES   REMARKS
BOSTON         CLEAR     65  58  78 S6        29.96F
WORCESTER      MOCLDY    60  56  86 W7        29.99S
WESTFIELD      MOCLDY    59  57  93 S3        29.97S
PROVINCETOWN   PTCLDY    63  61  94 SW7       29.98S
NANTUCKET      CLEAR     63  61  93 SW6       30.00S
$$

ANZ330-335-338-340-345-350-353-355-261000-
COASTAL MARINE OBSERVATIONS


STATION/POSITION TIME  SKY/WX   TEMP    WIND        PRES    VSBY  WAVE
                                AIR SEA DIR/SP/G                  HT/PER
                 (UTC)          (F)     (DEG/KT/KT) (MB)    (MI)  (FT/S)
NY HARB ENTRANCE NOT AVBL
4S FIRE IS       NOT AVBL
23SW MTP         0900            70 71              1015.5          3/ 8
HUDSON CANYON    0900            72 74  250/  8/ 10 1016.0          2/ 7
EXECUTION ROCKS  0900            72 71  230/  8/ 10   N/A
WESTERN LI SOUND 0900            72     220/  8/  8   N/A           0
CENTRAL LI SOUND 0800            71 72  220/ 12/ 14   N/A           1/ 3
EASTERN LI SOUND 0800            68 67  250/  6/  8   N/A
ROBBINS REEF     0900            69     250/ 12/ 14   N/A
$$


>>>>>>>>>>>>>>>>>>>>>>>>>>>> KEY <<<<<<<<<<<<<<<<<<<<<<<<<<<
>                                                          <
>     SKY/WX - SKY CONDITION/PRESENT WEATHER               <
>     TMP    - TEMPERATURE IN FAHRENHEIT                   <
>     DP     - DEWPOINT IN FAHRENHEIT                      <
>     RH     - RELATIVE HUMIDITY IN PERCENT                <
>     WIND   - DIRECTION AND SPEED IN MPH                  <
>     PRES   - MEAN SEA LEVEL PRESSURE IN INCHES OF HG     <
>     WCI    - WIND CHILL INDEX                            <
>     VSB    - VISIBILITY IN MILES                         <
>     HX     - HEAT INDEX                                  <
>     TC     - TEMPERATURE IN CELSIUS                      <
>     VRB    - VARIABLE WIND DIRECTION                     <
>                                                          <
>>>>>>>>>>>>>>>>>>>>>>>>>>>> KEY <<<<<<<<<<<<<<<<<<<<<<<<<<<




USA.gov is the U.S. government's official web portal to all federal, state and local government web resources and services.